STARLINK-1694

Last updated on Fri Nov 06 2020 00:02:03 GMT+0000 (Coordinated Universal Time)

1 46544U 20070N 20310.83334491 -.00031921 00000-0 -34408-3 0 9993 2 46544 53.0001 292.9964 0000884 93.4244 339.9374 15.62758169 5587
UTC large
Height (km)
Speed (km/s)
/
Latitude / Longitude
Inclination (degrees)
Orbital Period (minutes)
Azimuth
Elevation
Range (km)
Doppler Factor

Next 0 passes for location: London (51.5072 / 0.1276)

Sorry there are no passes over London.